Location: Archemont
(49.1579°N, 1.7598°E)
Time: 11:38:33
(UTC+00:00)

S-56A Canister/Altair - Pass Details

Date: 18 April 2024
Orbit: 638 x 2488 km, 38.9° (Epoch: 22 May)

Event Time Altitude Azimuth Distance (km) Brightness Sun altitude
Rises 00:42:04 0° 269° (W) 5,034 11.6 -28.9°
Enters shadow 00:45:20 - 256° (WSW) 4,634 11.2 -28.8°
Reaches altitude 10° 00:48:04 10° 244° (WSW) 4,451 - -28.7°
Maximum altitude 00:52:29 13° 223° (SW) 4,477 - -28.5°
Drops below altitude 10° 00:57:17 10° 202° (SSW) 4,904 - -28.2°
Sets 01:04:56 0° 178° (S) 6,112 - -27.8°
